�N����,����,�~����,�C��,���x,�C��,����,���ϕ���,�ő�u�ԕ���,�ő厞����,���˗�,�I�_���x,�n�����x,�ő啗���N��,DTYPE
"17/06/30","00:10",0.0,22.4,91.0,1007.8,274.1,0.7,1.0,272.6,0.00,20.9,24.0,"00:03:20",1
"17/06/30","00:20",0.0,22.4,91.6,1007.6,309.1,1.1,1.6,331.9,0.00,21.0,24.0,"00:19:36",1
"17/06/30","00:30",0.0,22.4,92.0,1007.6,308.4,1.2,2.0,324.2,0.00,21.1,23.9,"00:24:32",1
"17/06/30","00:40",0.0,22.2,92.2,1007.4,261.8,0.6,1.4,242.4,0.00,20.9,23.7,"00:31:28",1
"17/06/30","00:50",0.0,22.2,92.6,1007.6,304.6,0.7,1.2,318.4,0.00,21.0,23.7,"00:48:32",1
"17/06/30","01:00",0.0,22.2,92.9,1007.1,310.7,0.7,1.3,331.1,0.00,21.0,23.9,"00:50:16",1
"17/06/30","01:10",0.0,22.2,93.2,1007.6,270.8,0.6,1.1,236.2,0.00,21.1,23.7,"01:00:24",1
"17/06/30","01:20",0.0,22.1,93.4,1007.6,302.7,0.6,1.3,339.3,0.00,21.0,23.6,"01:15:36",1
"17/06/30","01:30",0.0,22.2,93.5,1007.4,268.4,0.3,0.8,295.9,0.00,21.1,23.7,"01:20:08",1
"17/06/30","01:40",0.0,22.1,93.6,1008.1,305.3,1.2,2.9,333.2,0.00,21.1,23.6,"01:38:16",1
"17/06/30","01:50",0.0,22.1,93.8,1007.1,241.5,1.2,2.5,318.0,0.00,21.1,23.4,"01:41:04",1
"17/06/30","02:00",0.0,22.0,94.1,1006.9,343.7,0.6,1.2,289.1,0.00,21.0,23.7,"01:52:24",1
"17/06/30","02:10",0.0,22.1,94.2,1007.1,234.8,1.0,2.4,237.4,0.00,21.2,23.3,"02:05:04",1
"17/06/30","02:20",0.0,22.0,94.2,1008.1,200.7,1.0,2.1,214.3,0.00,21.1,23.3,"02:16:40",1
"17/06/30","02:30",0.0,22.0,94.5,1007.4,71.9,0.2,1.0,172.7,0.00,21.1,23.3,"02:20:40",1
"17/06/30","02:40",0.0,22.1,94.6,1007.6,217.0,0.2,0.9,201.0,0.00,21.2,23.1,"02:37:44",1
"17/06/30","02:50",0.0,22.1,94.7,1007.6,227.9,0.3,1.1,239.8,0.00,21.2,23.2,"02:42:08",1
"17/06/30","03:00",0.0,22.2,94.9,1007.8,322.3,0.6,2.0,331.1,0.00,21.4,23.1,"02:57:44",1
"17/06/30","03:10",0.0,22.2,94.9,1006.9,323.3,1.0,2.6,331.5,0.00,21.4,23.3,"03:00:56",1
"17/06/30","03:20",0.0,22.1,94.9,1007.4,193.4,0.3,0.9,197.0,0.00,21.3,23.1,"03:13:12",1
"17/06/30","03:30",0.0,21.9,94.6,1007.6,187.9,0.8,2.1,125.8,0.00,21.0,23.2,"03:26:32",1
"17/06/30","03:40",0.0,21.8,94.9,1007.6,290.1,0.5,0.9,318.3,0.00,21.0,23.3,"03:34:48",1
"17/06/30","03:50",0.0,21.8,95.0,1007.4,278.3,0.2,0.8,306.7,0.00,21.0,23.2,"03:46:24",1
"17/06/30","04:00",0.0,21.9,95.1,1007.4,2.6,0.6,1.1,345.2,0.00,21.1,23.1,"03:58:48",1
"17/06/30","04:10",0.0,21.9,95.0,1007.4,17.6,0.2,0.8,343.8,0.00,21.1,23.1,"04:00:08",1
"17/06/30","04:20",0.0,21.9,95.2,1007.4,342.3,0.6,1.0,0.7,0.00,21.1,23.0,"04:13:36",1
"17/06/30","04:30",0.0,21.9,95.1,1007.6,327.3,0.3,0.8,355.5,0.00,21.1,23.1,"04:21:36",1
"17/06/30","04:40",0.0,22.0,95.3,1007.4,248.0,0.5,1.1,229.7,0.00,21.3,23.0,"04:39:28",1
"17/06/30","04:50",0.0,22.0,95.2,1007.4,263.4,0.5,0.8,224.7,0.00,21.2,23.1,"04:41:04",1
"17/06/30","05:00",0.0,22.0,95.3,1007.4,317.6,0.2,1.3,2.0,0.00,21.3,23.0,"04:58:16",1
"17/06/30","05:10",0.0,22.0,95.4,1007.4,322.5,0.5,1.0,258.7,0.00,21.3,23.1,"05:03:28",1
"17/06/30","05:20",0.0,22.0,95.4,1007.6,197.2,0.3,0.9,130.6,0.00,21.3,23.2,"05:16:16",1
"17/06/30","05:30",0.0,22.0,95.4,1007.6,328.5,0.5,1.2,347.2,0.00,21.3,23.1,"05:24:16",1
"17/06/30","05:40",0.0,22.0,95.4,1007.6,321.1,0.1,0.6,355.0,0.00,21.3,23.1,"05:34:00",1
"17/06/30","05:50",0.0,22.0,95.5,1007.6,335.2,0.1,0.4,328.7,0.00,21.3,23.1,"05:44:48",1
"17/06/30","06:00",0.0,22.0,95.5,1008.1,167.8,0.1,0.9,188.3,0.00,21.3,23.1,"05:56:08",1
"17/06/30","06:10",0.0,22.0,95.4,1007.4,180.8,0.5,1.1,187.1,0.00,21.3,22.8,"06:06:32",1
"17/06/30","06:20",0.0,21.9,95.6,1007.6,182.6,0.6,1.1,195.3,0.00,21.2,23.0,"06:13:18",1
"17/06/30","06:30",0.0,21.9,95.6,1007.8,245.5,0.3,1.0,242.5,0.00,21.2,22.8,"06:24:40",1
"17/06/30","06:40",0.0,21.9,95.7,1007.8,278.2,0.1,0.4,305.7,0.00,21.2,22.9,"06:37:28",1
"17/06/30","06:50",0.0,21.9,95.7,1008.1,283.3,0.0,0.3,283.0,0.00,21.2,23.0,"06:40:32",1
"17/06/30","07:00",0.0,22.0,95.8,1007.8,291.2,0.1,0.9,284.3,0.00,21.3,23.0,"06:50:02",1
"17/06/30","07:10",0.0,21.9,95.5,1008.6,329.5,2.1,4.4,330.7,0.00,21.2,22.6,"07:09:54",1
"17/06/30","07:20",0.0,21.8,95.9,1008.1,221.6,0.8,3.2,339.6,0.00,21.2,22.7,"07:10:16",1
"17/06/30","07:30",0.0,22.1,96.1,1008.1,336.8,0.7,1.3,337.5,0.04,21.5,22.7,"07:24:24",1
"17/06/30","07:40",0.0,22.3,96.0,1007.8,257.8,0.8,1.6,241.3,0.04,21.7,22.5,"07:32:32",1
"17/06/30","07:50",0.0,22.3,95.8,1007.8,260.1,0.5,0.9,315.9,0.02,21.6,22.8,"07:40:48",1
"17/06/30","08:00",0.0,22.3,95.8,1008.1,183.6,0.3,0.8,130.4,0.02,21.6,22.8,"07:52:00",1
"17/06/30","08:10",0.0,22.3,95.7,1007.8,251.7,0.8,1.7,233.7,0.02,21.6,22.6,"08:09:46",1
"17/06/30","08:20",0.0,22.4,95.7,1008.1,276.3,0.8,1.4,315.4,0.02,21.7,22.7,"08:17:04",1
"17/06/30","08:30",0.0,22.4,95.8,1007.8,323.0,1.2,2.2,342.4,0.00,21.7,22.8,"08:25:44",1
"17/06/30","08:40",0.0,22.4,95.7,1008.1,324.5,1.2,2.0,330.8,0.01,21.7,22.9,"08:30:08",1
"17/06/30","08:50",0.0,22.4,95.7,1007.6,292.2,0.6,1.4,262.7,0.01,21.7,22.7,"08:40:40",1
"17/06/30","09:00",0.0,22.3,95.7,1007.8,289.2,0.5,0.9,310.6,0.01,21.6,23.0,"08:59:28",1
"17/06/30","09:10",0.0,22.3,95.7,1007.6,295.3,0.5,0.9,338.6,0.01,21.6,22.9,"09:02:24",1
"17/06/30","09:20",0.0,22.4,95.8,1007.8,281.8,0.2,0.5,239.4,0.01,21.7,22.9,"09:10:56",1
"17/06/30","09:30",0.0,22.5,95.8,1007.8,279.4,0.3,0.6,254.8,0.02,21.8,23.0,"09:28:16",1
"17/06/30","09:40",0.0,22.6,95.7,1007.8,259.9,0.3,0.8,346.2,0.03,21.9,23.0,"09:31:04",1
"17/06/30","09:50",0.0,22.7,95.6,1007.8,254.4,0.1,0.5,6.5,0.04,22.0,22.7,"09:40:24",1
"17/06/30","10:00",0.0,22.8,95.4,1007.6,257.9,0.1,0.5,337.6,0.03,22.1,23.0,"09:54:16",1
"17/06/30","10:10",0.0,23.0,95.4,1007.6,216.7,0.2,0.8,228.7,0.07,22.3,23.1,"10:07:56",1
"17/06/30","10:20",0.0,23.1,95.0,1007.8,260.0,0.1,0.6,321.8,0.09,22.3,23.1,"10:15:28",1
"17/06/30","10:30",0.0,23.2,94.5,1007.8,262.2,0.2,0.6,254.7,0.05,22.3,23.2,"10:24:16",1
"17/06/30","10:40",0.0,23.3,94.2,1008.1,328.1,0.1,0.4,275.0,0.06,22.4,23.2,"10:30:16",1
"17/06/30","10:50",0.0,23.4,93.7,1007.8,348.4,0.1,0.5,359.6,0.07,22.4,23.2,"10:42:00",1
"17/06/30","11:00",0.0,23.5,93.1,1007.8,130.0,0.2,0.8,183.1,0.04,22.4,23.2,"10:51:36",1
"17/06/30","11:10",0.0,23.7,93.2,1007.6,2.7,0.2,0.8,349.6,0.06,22.6,23.1,"11:03:04",1
"17/06/30","11:20",0.0,23.6,92.5,1007.6,166.1,0.7,1.6,153.7,0.09,22.4,23.3,"11:18:00",1
"17/06/30","11:30",0.0,23.7,92.6,1007.1,30.0,0.6,1.3,30.3,0.08,22.5,23.2,"11:24:48",1
"17/06/30","11:40",0.0,23.9,92.6,1007.4,351.6,1.0,1.9,339.1,0.09,22.7,23.4,"11:36:48",1
"17/06/30","11:50",0.0,23.9,92.3,1007.6,330.4,0.8,1.6,343.3,0.07,22.6,23.5,"11:40:24",1
"17/06/30","12:00",0.0,23.8,91.8,1007.4,307.7,0.3,1.1,345.2,0.05,22.4,23.4,"11:51:52",1
"17/06/30","12:10",0.0,23.9,91.6,1007.1,270.9,0.2,0.6,215.6,0.05,22.5,23.5,"12:08:08",1
"17/06/30","12:20",0.0,24.0,91.9,1007.1,214.2,0.2,0.8,231.3,0.08,22.6,23.4,"12:17:52",1
"17/06/30","12:30",0.0,24.9,91.1,1006.7,306.3,0.2,0.8,323.9,0.23,23.4,23.5,"12:27:12",1
"17/06/30","12:40",0.0,25.0,87.9,1006.4,136.8,0.6,1.8,24.3,0.24,22.9,23.7,"12:38:40",1
"17/06/30","12:50",0.0,24.9,88.1,1006.4,42.2,0.5,1.2,41.9,0.11,22.8,23.7,"12:40:08",1
"17/06/30","13:00",0.0,25.1,89.1,1006.4,87.8,0.3,1.2,352.8,0.08,23.2,23.7,"12:52:24",1
"17/06/30","13:10",0.0,24.9,88.8,1006.2,189.3,0.3,1.0,141.3,0.06,23.0,23.7,"13:00:08",1
"17/06/30","13:20",0.0,24.9,89.3,1006.0,165.5,0.3,1.0,174.4,0.06,23.1,24.0,"13:17:52",1
"17/06/30","13:30",0.0,25.1,89.1,1006.2,151.9,0.3,1.1,137.4,0.12,23.2,24.1,"13:22:48",1
"17/06/30","13:40",0.0,25.2,88.6,1006.2,146.7,0.3,1.0,145.4,0.08,23.2,23.9,"13:33:12",1
"17/06/30","13:50",0.0,25.2,88.6,1006.0,171.5,0.5,1.1,209.7,0.07,23.2,23.8,"13:45:04",1
"17/06/30","14:00",0.0,25.5,88.8,1006.0,196.3,0.2,1.0,184.0,0.09,23.6,24.1,"13:53:04",1
"17/06/30","14:10",0.0,25.6,88.2,1006.0,4.5,0.5,1.3,13.1,0.13,23.5,24.1,"14:00:32",1
"17/06/30","14:20",0.0,26.1,86.0,1005.5,97.9,0.3,1.3,110.9,0.20,23.6,24.1,"14:18:32",1
"17/06/30","14:30",0.0,26.3,85.7,1005.2,72.5,0.3,1.1,91.8,0.16,23.8,24.3,"14:23:04",1
"17/06/30","14:40",0.0,26.1,85.8,1005.5,1.9,0.6,1.0,350.9,0.11,23.6,24.5,"14:30:48",1
"17/06/30","14:50",0.0,26.5,84.4,1005.7,334.6,0.8,1.8,346.6,0.19,23.7,24.4,"14:49:28",1
"17/06/30","15:00",0.0,26.9,83.7,1005.7,4.6,0.8,1.8,35.2,0.25,23.9,24.6,"14:54:08",1
"17/06/30","15:10",0.0,27.5,81.7,1005.0,344.0,0.7,1.8,348.7,0.30,24.1,24.7,"15:00:48",1
"17/06/30","15:20",0.0,28.3,79.1,1005.0,48.2,0.6,1.6,3.3,0.33,24.4,24.7,"15:12:24",1
"17/06/30","15:30",0.0,28.4,77.3,1004.3,158.5,0.6,2.9,230.3,0.27,24.1,24.8,"15:26:56",1
"17/06/30","15:40",0.0,27.7,74.8,1004.8,230.3,1.2,2.7,224.3,0.17,22.9,25.1,"15:38:56",1
"17/06/30","15:50",0.0,28.0,74.3,1004.5,236.7,0.6,2.0,302.7,0.18,23.0,24.9,"15:49:12",1
"17/06/30","16:00",0.0,27.8,75.5,1004.3,245.5,0.7,2.6,223.7,0.15,23.1,25.2,"15:58:48",1
"17/06/30","16:10",0.0,28.1,74.8,1004.3,199.7,1.2,2.6,196.9,0.19,23.2,25.2,"16:00:02",1
"17/06/30","16:20",0.0,28.4,70.5,1004.3,209.0,1.5,2.9,191.8,0.24,22.6,25.3,"16:17:52",1
"17/06/30","16:30",0.0,29.5,69.8,1004.1,227.2,1.2,3.3,225.4,0.36,23.4,25.3,"16:21:28",1
"17/06/30","16:40",0.0,29.8,69.0,1004.3,216.5,1.2,3.3,211.2,0.30,23.5,25.4,"16:30:08",1
"17/06/30","16:50",0.0,28.9,70.0,1004.3,204.6,1.5,3.1,206.0,0.18,22.9,25.4,"16:41:04",1
"17/06/30","17:00",0.0,28.5,70.4,1004.1,215.2,1.8,3.9,201.4,0.18,22.6,25.3,"16:50:32",1
"17/06/30","17:10",0.0,28.4,67.8,1003.8,219.3,1.5,2.8,242.0,0.11,21.9,25.6,"17:09:20",1
"17/06/30","17:20",0.0,28.4,68.6,1003.4,230.9,1.0,2.2,222.1,0.09,22.1,25.5,"17:15:12",1
"17/06/30","17:30",0.0,28.9,66.5,1003.6,249.7,1.1,2.9,329.5,0.07,22.1,25.5,"17:21:12",1
"17/06/30","17:40",0.0,29.3,66.2,1003.4,228.4,0.8,2.4,227.5,0.05,22.4,25.7,"17:36:08",1
"17/06/30","17:50",0.0,29.1,67.1,1003.4,239.2,1.2,3.2,226.7,0.04,22.4,25.3,"17:46:48",1
"17/06/30","18:00",0.0,28.4,67.7,1003.4,249.1,1.2,3.9,227.1,0.03,21.9,25.5,"17:50:56",1
"17/06/30","18:10",0.0,27.9,69.2,1002.9,260.0,0.8,2.6,259.4,0.02,21.8,25.5,"18:08:56",1
"17/06/30","18:20",0.0,27.8,71.3,1003.1,235.8,0.8,2.1,238.9,0.02,22.2,25.7,"18:14:08",1
"17/06/30","18:30",0.0,27.6,71.9,1003.4,262.0,1.1,2.6,296.2,0.01,22.1,25.5,"18:27:36",1
"17/06/30","18:40",0.0,27.4,73.3,1003.1,276.1,0.6,1.3,342.3,0.01,22.2,25.5,"18:39:20",1
"17/06/30","18:50",0.0,27.2,74.7,1003.4,277.7,0.7,1.2,258.8,0.01,22.4,25.5,"18:41:04",1
"17/06/30","19:00",0.0,26.9,75.5,1003.6,280.7,0.6,1.6,269.3,0.01,22.2,25.3,"18:55:04",1
"17/06/30","19:10",0.0,26.7,76.3,1003.8,272.6,0.5,1.1,239.6,0.00,22.2,25.4,"19:00:40",1
"17/06/30","19:20",0.0,26.6,76.6,1004.1,290.3,0.8,1.8,345.1,0.00,22.2,25.2,"19:12:08",1
"17/06/30","19:30",0.0,26.3,78.1,1004.1,276.3,0.7,1.8,356.9,0.00,22.2,25.3,"19:27:36",1
"17/06/30","19:40",0.0,25.9,79.7,1004.1,288.8,0.5,1.1,251.7,0.00,22.2,25.1,"19:32:32",1
"17/06/30","19:50",0.0,25.5,81.3,1004.3,295.4,0.2,0.9,307.5,0.00,22.1,25.1,"19:48:32",1
"17/06/30","20:00",0.0,25.2,84.2,1004.5,331.6,0.7,1.4,350.0,0.00,22.4,24.9,"19:57:44",1
"17/06/30","20:10",0.0,24.9,85.3,1004.5,3.3,0.5,0.8,10.3,0.00,22.3,25.0,"20:00:48",1
"17/06/30","20:20",0.0,24.8,86.2,1005.0,342.1,0.8,1.3,342.4,0.00,22.4,24.9,"20:19:20",1
"17/06/30","20:30",0.0,24.5,87.1,1005.0,316.7,0.6,1.4,346.1,0.00,22.3,25.0,"20:20:32",1
"17/06/30","20:40",0.0,24.4,87.8,1004.5,256.7,0.1,0.6,233.7,0.00,22.3,24.6,"20:36:24",1
"17/06/30","20:50",0.0,24.3,88.4,1005.2,352.0,0.8,1.9,7.4,0.00,22.3,24.6,"20:49:12",1
"17/06/30","21:00",0.0,24.3,89.1,1005.0,340.8,1.0,1.9,343.7,0.00,22.4,24.7,"20:50:32",1
"17/06/30","21:10",0.0,24.2,89.4,1005.2,339.5,1.0,1.7,346.6,0.00,22.4,24.6,"21:00:08",1
"17/06/30","21:20",0.0,24.3,89.3,1005.0,291.3,0.2,0.9,358.7,0.00,22.5,24.5,"21:10:56",1
"17/06/30","21:30",0.0,24.3,89.5,1005.0,3.6,0.5,1.0,43.7,0.00,22.5,24.5,"21:25:36",1
"17/06/30","21:40",0.0,24.3,89.5,1005.5,270.5,0.2,1.2,310.6,0.00,22.5,24.3,"21:39:36",1
"17/06/30","21:50",0.0,24.2,89.8,1005.2,308.0,0.7,1.2,310.4,0.00,22.5,24.5,"21:41:36",1
"17/06/30","22:00",0.0,24.1,89.9,1005.7,294.3,0.3,0.8,327.8,0.00,22.4,24.3,"21:55:36",1
"17/06/30","22:10",0.0,24.1,90.0,1005.5,346.0,0.1,0.6,320.3,0.00,22.4,24.3,"22:00:56",1
"17/06/30","22:20",0.0,24.0,90.4,1005.7,280.9,0.3,0.9,266.7,0.00,22.4,24.2,"22:16:24",1
"17/06/30","22:30",0.0,23.9,90.7,1005.2,292.0,0.1,0.6,321.7,0.00,22.3,24.5,"22:22:00",1
"17/06/30","22:40",0.0,23.9,91.0,1005.5,288.1,0.6,1.0,340.2,0.00,22.4,23.9,"22:36:00",1
"17/06/30","22:50",0.0,24.0,90.9,1005.2,292.7,0.6,1.0,320.1,0.00,22.5,24.0,"22:43:44",1
"17/06/30","23:00",0.0,24.0,91.2,1005.5,331.6,0.8,1.6,346.1,0.00,22.5,24.2,"22:59:36",1
"17/06/30","23:10",0.0,24.0,91.2,1005.0,257.2,0.6,1.6,348.2,0.00,22.5,24.2,"23:00:08",1
"17/06/30","23:20",0.0,23.9,91.4,1005.2,332.5,0.2,0.6,335.0,0.00,22.5,23.9,"23:12:32",1
"17/06/30","23:30",0.0,23.9,91.6,1005.2,311.2,0.5,1.0,320.9,0.00,22.5,24.0,"23:29:20",1
"17/06/30","23:40",0.0,23.9,91.9,1005.2,335.4,0.7,1.1,329.4,0.00,22.5,24.2,"23:37:44",1
"17/06/30","23:50",0.0,23.9,92.0,1005.0,256.8,0.3,1.1,235.2,0.00,22.6,23.9,"23:45:36",1
"17/06/30","24:00",0.0,23.8,92.2,1004.8,267.0,0.3,0.9,312.1,0.00,22.5,24.0,"23:57:04",1
